Time,TemperatureF,DewpointF,PressureIn,WindDirection,WindDirectionDegrees,WindSpeedMPH,WindSpeedGustMPH,Humidity,HourlyPrecipIn,Conditions,Clouds,dailyrainin,SoftwareType,DateUTC
2013-01-01 00:03:00,33.7,25.0,29.78,North,5,0.0,-999.0,71,-99.99,,,0.02,weatherlink.com 1.10,2013-01-01 05:03:00,
2013-01-01 00:18:00,34.1,25.0,29.78,NNE,16,1.0,-999.0,70,-99.99,,,0.02,weatherlink.com 1.10,2013-01-01 05:18:00,
2013-01-01 00:33:00,34.7,26.0,29.78,ENE,66,6.0,-999.0,71,-99.99,,,0.00,weatherlink.com 1.10,2013-01-01 05:33:00,
2013-01-01 00:48:00,35.5,27.0,29.78,ESE,105,2.0,-999.0,71,-99.99,,,0.00,weatherlink.com 1.10,2013-01-01 05:48:00,
2013-01-01 01:03:00,35.5,27.0,29.78,North,9,2.0,-999.0,71,-99.99,,,0.00,weatherlink.com 1.10,2013-01-01 06:03:00,
2013-01-01 01:18:00,35.6,27.0,29.77,NNE,12,3.0,-999.0,72,-99.99,,,0.00,weatherlink.com 1.10,2013-01-01 06:18:00,
2013-01-01 01:33:00,35.3,27.0,29.77,NE,38,8.0,-999.0,72,-99.99,,,0.00,weatherlink.com 1.10,2013-01-01 06:33:00,
2013-01-01 01:48:00,35.3,27.0,29.77,NE,42,8.0,-999.0,73,-99.99,,,0.00,weatherlink.com 1.10,2013-01-01 06:48:00,
2013-01-01 02:03:00,35.3,27.0,29.76,NE,55,5.0,-999.0,72,-99.99,,,0.00,weatherlink.com 1.10,2013-01-01 07:03:00,
2013-01-01 02:18:00,35.3,27.0,29.76,NNE,15,8.0,-999.0,72,-99.99,,,0.00,weatherlink.com 1.10,2013-01-01 07:18:00,
2013-01-01 02:33:00,35.4,27.0,29.76,NE,34,1.0,-999.0,72,-99.99,,,0.00,weatherlink.com 1.10,2013-01-01 07:33:00,
2013-01-01 02:48:00,35.2,27.0,29.76,NE,46,3.0,-999.0,71,-99.99,,,0.00,weatherlink.com 1.10,2013-01-01 07:48:00,
2013-01-01 03:03:00,35.2,27.0,29.77,NE,40,0.0,-999.0,72,-99.99,,,0.00,weatherlink.com 1.10,2013-01-01 08:03:00,
2013-01-01 03:18:00,35.2,27.0,29.76,NNE,30,1.0,-999.0,72,-99.99,,,0.00,weatherlink.com 1.10,2013-01-01 08:18:00,
2013-01-01 03:33:00,35.1,27.0,29.76,NE,55,2.0,-999.0,72,-99.99,,,0.00,weatherlink.com 1.10,2013-01-01 08:33:00,
2013-01-01 03:48:00,35.2,27.0,29.77,ESE,107,5.0,-999.0,73,-99.99,,,0.00,weatherlink.com 1.10,2013-01-01 08:48:00,
2013-01-01 04:03:00,35.0,28.0,29.77,East,79,0.0,-999.0,75,-99.99,,,0.00,weatherlink.com 1.10,2013-01-01 09:03:00,
2013-01-01 04:18:00,34.9,28.0,29.77,NE,37,1.0,-999.0,75,-99.99,,,0.00,weatherlink.com 1.10,2013-01-01 09:18:00,
2013-01-01 04:33:00,34.8,28.0,29.78,ENE,67,5.0,-999.0,75,-99.99,,,0.00,weatherlink.com 1.10,2013-01-01 09:33:00,
2013-01-01 04:48:00,34.6,28.0,29.78,SSE,150,4.0,-999.0,76,-99.99,,,0.00,weatherlink.com 1.10,2013-01-01 09:48:00,
2013-01-01 05:03:00,34.2,27.0,29.78,ESE,112,5.0,-999.0,74,-99.99,,,0.00,weatherlink.com 1.10,2013-01-01 10:03:00,
2013-01-01 05:18:00,33.8,25.0,29.78,ESE,115,5.0,-999.0,71,-99.99,,,0.00,weatherlink.com 1.10,2013-01-01 10:18:00,
2013-01-01 05:33:00,33.4,25.0,29.79,East,80,6.0,-999.0,70,-99.99,,,0.00,weatherlink.com 1.10,2013-01-01 10:33:00,
2013-01-01 05:48:00,32.9,24.0,29.80,ESE,110,4.0,-999.0,69,-99.99,,,0.00,weatherlink.com 1.10,2013-01-01 10:48:00,
2013-01-01 06:03:00,32.6,23.0,29.81,SE,127,5.0,-999.0,67,-99.99,,,0.00,weatherlink.com 1.10,2013-01-01 11:03:00,
2013-01-01 06:18:00,32.0,22.0,29.82,SE,125,0.0,-999.0,67,-99.99,,,0.00,weatherlink.com 1.10,2013-01-01 11:18:00,
2013-01-01 06:33:00,31.7,22.0,29.82,SE,130,1.0,-999.0,68,-99.99,,,0.00,weatherlink.com 1.10,2013-01-01 11:33:00,
2013-01-01 06:48:00,31.1,21.0,29.83,ESE,115,5.0,-999.0,67,-99.99,,,0.00,weatherlink.com 1.10,2013-01-01 11:48:00,
2013-01-01 07:03:00,30.6,21.0,29.84,ESE,117,8.0,-999.0,67,-99.99,,,0.00,weatherlink.com 1.10,2013-01-01 12:03:00,
2013-01-01 07:18:00,30.3,21.0,29.84,SSE,155,0.0,-999.0,69,-99.99,,,0.00,weatherlink.com 1.10,2013-01-01 12:18:00,
2013-01-01 07:33:00,29.9,21.0,29.85,SE,142,0.0,-999.0,70,-99.99,,,0.00,weatherlink.com 1.10,2013-01-01 12:33:00,
2013-01-01 07:48:00,29.7,21.0,29.85,SE,142,5.0,-999.0,70,-99.99,,,0.00,weatherlink.com 1.10,2013-01-01 12:48:00,
2013-01-01 08:03:00,29.4,21.0,29.85,SSW,196,0.0,-999.0,71,-99.99,,,0.00,weatherlink.com 1.10,2013-01-01 13:03:00,
2013-01-01 08:18:00,29.1,20.0,29.86,SE,142,4.0,-999.0,68,-99.99,,,0.00,weatherlink.com 1.10,2013-01-01 13:18:00,
2013-01-01 08:33:00,28.8,19.0,29.86,SSE,167,9.0,-999.0,68,-99.99,,,0.00,weatherlink.com 1.10,2013-01-01 13:33:00,
2013-01-01 08:48:00,28.6,19.0,29.86,ESE,123,2.0,-999.0,68,-99.99,,,0.00,weatherlink.com 1.10,2013-01-01 13:48:00,
2013-01-01 09:03:00,28.5,19.0,29.87,ESE,119,2.0,-999.0,68,-99.99,,,0.00,weatherlink.com 1.10,2013-01-01 14:03:00,
2013-01-01 09:18:00,28.4,19.0,29.87,ESE,113,2.0,-999.0,69,-99.99,,,0.00,weatherlink.com 1.10,2013-01-01 14:18:00,
2013-01-01 09:34:00,28.1,19.0,29.89,SE,133,1.0,-999.0,68,-99.99,,,0.00,weatherlink.com 1.10,2013-01-01 14:34:00,
2013-01-01 09:48:00,28.1,18.0,29.89,SE,146,5.0,-999.0,67,-99.99,,,0.00,weatherlink.com 1.10,2013-01-01 14:48:00,
2013-01-01 10:03:00,28.1,19.0,29.89,East,88,2.0,-999.0,68,-99.99,,,0.00,weatherlink.com 1.10,2013-01-01 15:03:00,
2013-01-01 10:18:00,28.2,19.0,29.89,SSE,157,7.0,-999.0,68,-99.99,,,0.00,weatherlink.com 1.10,2013-01-01 15:18:00,
2013-01-01 10:33:00,28.3,19.0,29.89,ESE,102,2.0,-999.0,69,-99.99,,,0.00,weatherlink.com 1.10,2013-01-01 15:33:00,
2013-01-01 10:48:00,28.1,19.0,29.89,SE,138,2.0,-999.0,69,-99.99,,,0.00,weatherlink.com 1.10,2013-01-01 15:48:00,
2013-01-01 11:03:00,28.1,18.0,29.89,East,90,6.0,-999.0,67,-99.99,,,0.00,weatherlink.com 1.10,2013-01-01 16:03:00,
2013-01-01 11:18:00,27.9,18.0,29.89,SSE,157,10.0,-999.0,67,-99.99,,,0.00,weatherlink.com 1.10,2013-01-01 16:18:00,
2013-01-01 11:33:00,27.8,18.0,29.88,ESE,111,6.0,-999.0,67,-99.99,,,0.00,weatherlink.com 1.10,2013-01-01 16:33:00,
2013-01-01 11:48:00,28.0,18.0,29.87,SSE,153,5.0,-999.0,67,-99.99,,,0.00,weatherlink.com 1.10,2013-01-01 16:48:00,
2013-01-01 12:03:00,28.0,18.0,29.87,ESE,123,4.0,-999.0,65,-99.99,,,0.00,weatherlink.com 1.10,2013-01-01 17:03:00,
2013-01-01 12:18:00,27.6,17.0,29.87,SE,127,8.0,-999.0,64,-99.99,,,0.00,weatherlink.com 1.10,2013-01-01 17:18:00,
2013-01-01 12:33:00,27.7,17.0,29.86,SE,146,5.0,-999.0,65,-99.99,,,0.00,weatherlink.com 1.10,2013-01-01 17:33:00,
2013-01-01 12:48:00,27.9,18.0,29.87,SE,144,4.0,-999.0,67,-99.99,,,0.00,weatherlink.com 1.10,2013-01-01 17:48:00,
2013-01-01 13:05:00,28.0,17.0,29.85,ENE,58,3.0,-999.0,64,-99.99,,,0.00,weatherlink.com 1.10,2013-01-01 18:05:00,
2013-01-01 13:18:00,28.7,17.0,29.86,ESE,105,7.0,-999.0,63,-99.99,,,0.00,weatherlink.com 1.10,2013-01-01 18:18:00,
2013-01-01 13:33:00,28.1,16.0,29.86,ENE,76,5.0,-999.0,62,-99.99,,,0.00,weatherlink.com 1.10,2013-01-01 18:33:00,
2013-01-01 13:48:00,27.8,16.0,29.87,ENE,75,3.0,-999.0,62,-99.99,,,0.00,weatherlink.com 1.10,2013-01-01 18:48:00,
2013-01-01 14:03:00,27.2,16.0,29.87,SE,133,9.0,-999.0,63,-99.99,,,0.00,weatherlink.com 1.10,2013-01-01 19:03:00,
2013-01-01 14:18:00,26.5,16.0,29.86,SE,128,7.0,-999.0,64,-99.99,,,0.00,weatherlink.com 1.10,2013-01-01 19:18:00,
2013-01-01 14:33:00,26.0,16.0,29.87,ESE,112,5.0,-999.0,66,-99.99,,,0.00,weatherlink.com 1.10,2013-01-01 19:33:00,
2013-01-01 14:48:00,26.0,16.0,29.86,ENE,59,5.0,-999.0,66,-99.99,,,0.00,weatherlink.com 1.10,2013-01-01 19:48:00,
2013-01-01 15:03:00,25.8,15.0,29.87,ESE,113,9.0,-999.0,64,-99.99,,,0.00,weatherlink.com 1.10,2013-01-01 20:03:00,
2013-01-01 15:18:00,25.6,15.0,29.87,ESE,111,5.0,-999.0,64,-99.99,,,0.00,weatherlink.com 1.10,2013-01-01 20:18:00,
2013-01-01 15:33:00,25.3,14.0,29.88,SSE,155,9.0,-999.0,63,-99.99,,,0.00,weatherlink.com 1.10,2013-01-01 20:33:00,
2013-01-01 15:48:00,25.1,14.0,29.89,East,100,1.0,-999.0,62,-99.99,,,0.00,weatherlink.com 1.10,2013-01-01 20:48:00,
2013-01-01 16:03:00,24.9,13.0,29.88,ENE,73,6.0,-999.0,62,-99.99,,,0.00,weatherlink.com 1.10,2013-01-01 21:03:00,
2013-01-01 16:18:00,24.8,13.0,29.88,East,86,7.0,-999.0,61,-99.99,,,0.00,weatherlink.com 1.10,2013-01-01 21:18:00,
2013-01-01 16:33:00,24.5,13.0,29.89,East,96,6.0,-999.0,62,-99.99,,,0.00,weatherlink.com 1.10,2013-01-01 21:33:00,
2013-01-01 16:48:00,24.3,13.0,29.90,ENE,70,5.0,-999.0,62,-99.99,,,0.00,weatherlink.com 1.10,2013-01-01 21:48:00,
2013-01-01 17:03:00,24.0,12.0,29.91,ESE,103,5.0,-999.0,60,-99.99,,,0.00,weatherlink.com 1.10,2013-01-01 22:03:00,
2013-01-01 17:18:00,23.5,11.0,29.91,ESE,118,5.0,-999.0,60,-99.99,,,0.00,weatherlink.com 1.10,2013-01-01 22:18:00,
2013-01-01 17:33:00,23.0,13.0,29.92,ESE,117,5.0,-999.0,66,-99.99,,,0.00,weatherlink.com 1.10,2013-01-01 22:33:00,
2013-01-01 17:49:00,22.5,10.0,29.93,East,80,6.0,-999.0,60,-99.99,,,0.00,weatherlink.com 1.10,2013-01-01 22:49:00,
2013-01-01 18:03:00,22.2,10.0,29.94,East,94,6.0,-999.0,60,-99.99,,,0.00,weatherlink.com 1.10,2013-01-01 23:03:00,
2013-01-01 18:18:00,21.8,11.0,29.95,SSE,154,2.0,-999.0,62,-99.99,,,0.00,weatherlink.com 1.10,2013-01-01 23:18:00,
2013-01-01 18:33:00,21.3,10.0,29.95,SE,134,4.0,-999.0,63,-99.99,,,0.00,weatherlink.com 1.10,2013-01-01 23:33:00,
2013-01-01 18:48:00,21.1,10.0,29.96,SE,133,5.0,-999.0,63,-99.99,,,0.00,weatherlink.com 1.10,2013-01-01 23:48:00,
2013-01-01 19:03:00,20.7,10.0,29.96,East,95,7.0,-999.0,64,-99.99,,,0.00,weatherlink.com 1.10,2013-01-02 00:03:00,
2013-01-01 19:18:00,20.4,10.0,29.97,SE,133,0.0,-999.0,65,-99.99,,,0.00,weatherlink.com 1.10,2013-01-02 00:18:00,
2013-01-01 19:33:00,19.9,10.0,29.98,ENE,74,0.0,-999.0,65,-99.99,,,0.00,weatherlink.com 1.10,2013-01-02 00:33:00,
2013-01-01 19:48:00,19.6,10.0,29.98,East,83,0.0,-999.0,66,-99.99,,,0.00,weatherlink.com 1.10,2013-01-02 00:48:00,
2013-01-01 20:03:00,19.3,10.0,29.97,East,96,4.0,-999.0,66,-99.99,,,0.00,weatherlink.com 1.10,2013-01-02 01:03:00,
2013-01-01 20:18:00,19.0,10.0,29.97,East,98,1.0,-999.0,67,-99.99,,,0.00,weatherlink.com 1.10,2013-01-02 01:18:00,
2013-01-01 20:33:00,18.5,10.0,29.97,East,98,0.0,-999.0,68,-99.99,,,0.00,weatherlink.com 1.10,2013-01-02 01:33:00,
2013-01-01 20:48:00,18.2,10.0,29.97,SSE,158,2.0,-999.0,69,-99.99,,,0.00,weatherlink.com 1.10,2013-01-02 01:48:00,
2013-01-01 21:03:00,17.8,10.0,29.96,SE,142,0.0,-999.0,70,-99.99,,,0.00,weatherlink.com 1.10,2013-01-02 02:03:00,
2013-01-01 21:18:00,17.3,9.0,29.97,SE,142,0.0,-999.0,71,-99.99,,,0.00,weatherlink.com 1.10,2013-01-02 02:18:00,
2013-01-01 21:33:00,16.7,9.0,29.97,SE,142,0.0,-999.0,72,-99.99,,,0.00,weatherlink.com 1.10,2013-01-02 02:33:00,
2013-01-01 21:49:00,15.9,9.0,29.96,SE,142,0.0,-999.0,73,-99.99,,,0.00,weatherlink.com 1.10,2013-01-02 02:49:00,
2013-01-01 22:03:00,15.0,8.0,29.97,SE,142,0.0,-999.0,75,-99.99,,,0.00,weatherlink.com 1.10,2013-01-02 03:03:00,
2013-01-01 22:18:00,15.3,9.0,29.98,SE,142,0.0,-999.0,77,-99.99,,,0.00,weatherlink.com 1.10,2013-01-02 03:18:00,
2013-01-01 22:33:00,15.2,9.0,29.98,SE,142,0.0,-999.0,76,-99.99,,,0.00,weatherlink.com 1.10,2013-01-02 03:33:00,
2013-01-01 22:48:00,14.6,9.0,29.98,SE,142,0.0,-999.0,77,-99.99,,,0.00,weatherlink.com 1.10,2013-01-02 03:48:00,
2013-01-01 23:03:00,14.2,9.0,29.98,SE,142,0.0,-999.0,78,-99.99,,,0.00,weatherlink.com 1.10,2013-01-02 04:03:00,
2013-01-01 23:18:00,14.3,9.0,29.97,SE,142,0.0,-999.0,79,-99.99,,,0.00,weatherlink.com 1.10,2013-01-02 04:18:00,
2013-01-01 23:33:00,15.3,10.0,29.98,NE,41,1.0,-999.0,79,-99.99,,,0.00,weatherlink.com 1.10,2013-01-02 04:33:00,
2013-01-01 23:48:00,16.3,10.0,29.97,ENE,65,4.0,-999.0,76,-99.99,,,0.00,weatherlink.com 1.10,2013-01-02 04:48:00,